Location: ???? ??????????
(44.4231°N, 135.2942°E)
Time: 10:00:40
(UTC+00:00)

Daily predictions for brighter satellites

Satellite Brightness Start Highest point End
(mag) Time Altitude Azimuth Time Altitude Azimuth Time Altitude Azimuth
CZ-4 R/B 3.9 12:02:11 10° WSW 12:04:07 14° W 12:06:01 10° WNW
Cosmos 1805 4.2 12:01:43 10° NNE 12:04:24 23° ENE 12:04:40 23° E
USA 305 4.5 12:05:34 10° W 12:08:23 19° SW 12:09:52 15° SSW
CZ-4B R/B 3.6 12:06:23 27° SE 12:08:42 52° ENE 12:13:23 10° N
Cosmos 1933 3.2 12:07:54 32° SSE 12:09:28 62° E 12:13:15 10° NNE
Meteor 1-25 Rocket 4.4 12:03:56 10° N 12:09:29 55° ENE 12:12:22 27° SE
Cosmos 1992 Rocket 4.4 12:04:23 10° SSW 12:09:33 65° WNW 12:14:45 10° NNE
Cosmos 2219 Rocket 3.7 12:06:30 10° N 12:11:10 26° NE 12:14:23 16° E
USA 186 2.2 12:10:20 32° SSW 12:11:11 45° W 12:13:51 10° NNW
Cosmos 2061 Rocket 4.3 12:07:11 10° SSW 12:13:21 68° W 12:19:38 10° N
Cosmos 1464 Rocket 4.4 12:10:40 25° SE 12:13:43 43° E 12:19:29 10° NNE
CZ-2C R/B 3.1 12:17:39 29° ENE 12:17:39 29° ENE 12:19:54 10° N
USA 245 4.3 12:17:39 25° SSE 12:21:19 89° WSW 12:27:00 10° NNW
NOSS 3-3 (C) 4.4 12:17:08 10° SW 12:22:15 55° NW 12:28:21 10° NNE
Cosmos 1602 Rocket 3.4 12:23:08 10° N 12:27:28 74° E 12:28:51 42° SSE
Cosmos 2322 Rocket 2.5 12:23:48 10° NNW 12:29:22 54° ENE 12:31:50 32° ESE
Cosmos 2082 Rocket 4.0 12:26:04 10° WSW 12:31:08 32° NW 12:36:14 10° N
IRS-1C Rocket 4.0 12:28:51 33° SSE 12:31:18 82° ENE 12:36:36 10° NNW
Okean 1 4.0 12:32:27 33° ENE 12:32:27 33° ENE 12:35:19 10° NNE
Terra 4.3 12:34:20 10° SW 12:37:16 16° W 12:40:12 10° NW
NOSS 3-4 (A) 4.0 12:30:30 10° NW 12:37:16 69° NE 12:41:34 29° SE
Cosmos 1486 Rocket 4.0 12:32:13 10° NNW 12:37:29 70° ENE 12:39:23 39° SE
NOSS 3-4 (C) 4.0 12:31:08 10° NW 12:37:55 69° NE 12:42:13 29° SE
Cosmos 1461 3.7 12:34:22 10° SW 12:37:55 43° NW 12:41:28 10° NNE
Cosmos 220 Rocket 4.0 12:37:20 26° SSW 12:39:32 73° WNW 12:43:38 10° NNE
Meteor 2-10 4.3 12:36:32 10° N 12:42:16 67° ENE 12:44:22 39° SSE
Cosmos 2098 Rocket 3.1 12:41:21 37° S 12:43:14 85° E 12:47:33 10° N
Cosmos 1076 Rocket 3.9 12:44:03 10° N 12:48:07 43° ENE 12:48:30 42° E
Helios 1A 4.2 12:45:44 10° NE 12:48:15 25° ENE 12:48:15 25° ENE
Cosmos 1437 Rocket 4.0 12:47:47 20° SW 12:49:41 34° WNW 12:52:59 10° N
Cosmos 2034 Rocket 4.2 12:49:26 37° SSE 12:51:46 57° E 12:57:59 10° NNE
ISS -1.4 12:51:39 10° NW 12:54:25 23° N 12:56:44 12° NE
Cosmos 2278 3.8 12:49:18 10° NNW 12:55:00 71° WSW 12:57:01 41° S
Cosmos 540 Rocket 3.6 12:55:05 48° SE 12:55:54 54° ESE 13:00:55 10° NNE
Cosmos 2151 4.2 12:52:38 10° NNW 12:56:22 35° W 12:57:50 26° SW
USA 290 3.0 12:57:45 46° NNE 12:57:45 46° NNE 13:00:04 10° NNE
Meteor 1-5 Rocket 4.2 12:51:14 10° NNW 12:57:02 86° W 12:59:16 40° S
Cosmos 1606 Rocket 3.4 12:58:37 56° SSW 12:59:31 85° W 13:03:51 10° N
SL-16 R/B 2.7 12:54:08 10° NW 12:59:37 51° WSW 13:01:43 34° SSW
DELTA 2 R/B (1) 3.8 12:55:01 10° W 13:00:19 47° S 13:00:45 46° S
Okean O Rocket 4.1 13:05:21 10° SW 13:07:46 15° W 13:10:12 10° NW
Cosmos 1726 Rocket 3.2 13:08:09 83° SSE 13:08:15 86° ESE 13:12:20 10° N
Nadezhda 4 Rocket 4.0 13:05:00 10° N 13:11:07 76° W 13:13:25 40° S
Geosat 3.9 13:09:14 10° NNE 13:14:14 68° ESE 13:14:58 59° SSE
Cosmos 1634 Rocket 4.3 13:14:36 43° SE 13:15:51 49° E 13:21:47 10° NNE
Ariane Rocket 4.0 13:17:46 28° SW 13:19:31 37° W 13:24:13 10° NNW
Okean 1-7 Rocket 4.3 13:18:57 10° NNW 13:23:15 46° W 13:24:01 42° WSW
Cosmos 2333 Rocket 3.2 13:21:28 10° NW 13:26:36 35° WSW 13:28:13 29° SW
Cosmos 2195 Rocket 4.4 13:23:08 10° N 13:29:22 81° W 13:31:07 50° S
Cosmos 1766 4.3 13:27:22 10° N 13:29:22 34° N 13:29:22 34° N
Cosmos 1833 4.3 13:28:33 35° SW 13:31:02 74° WNW 13:36:41 10° NNE
Cosmos 2297 Rocket 4.0 13:32:59 16° E 13:32:59 16° E 13:35:25 10° ENE
Cosmos-2242 2.9 13:32:48 74° NNE 13:32:48 74° NNE 13:36:36 10° N
IKONOS-2 4.4 13:28:27 10° NNE 13:32:25 81° NNW 13:32:25 81° NNW
Cosmos 2026 Rocket 4.0 13:27:29 10° N 13:33:55 89° W 13:35:39 52° S
Cosmos 1763 Rocket 3.9 13:34:01 37° SW 13:36:00 62° WNW 13:41:15 10° NNE
Cosmos 1627 Rocket 4.5 13:30:22 10° N 13:36:48 89° W 13:38:30 53° S
Meteor 2-6 Rocket 4.5 13:37:28 52° SE 13:38:14 56° E 13:44:03 10° NNE
Cosmos 1898 Rocket 4.3 13:35:29 10° N 13:40:20 39° ENE 13:41:14 36° E
Cosmos 2360 Rocket 2.7 13:36:21 10° NW 13:41:44 45° WSW 13:42:42 41° SW
Cosmos 2322 4.4 13:37:27 10° NNW 13:42:55 45° ENE 13:44:19 38° E
Cosmos 990 Rocket 4.0 13:41:40 10° NNW 13:46:46 63° WSW 13:47:12 61° SW
CZ-2C R/B 4.0 13:50:23 10° NNE 13:54:13 55° ENE 13:54:13 55° ENE
Cosmos 44 3.3 13:49:44 10° NNW 13:55:09 81° NE 13:55:34 74° ESE
Cosmos 2219 Rocket 2.4 13:49:55 10° NNW 13:55:27 57° WSW 13:56:04 54° SW
Cosmos 2221 3.5 13:57:43 37° NE 13:57:43 37° NE 14:00:41 10° NNE
Cosmos 1953 Rocket 4.5 13:55:56 10° NNW 13:59:51 38° W 13:59:51 38° W
Helios 1B rocket 3.5 14:05:27 35° NW 14:05:27 35° NW 14:07:42 10° NNW
Cosmos 1536 3.9 14:04:03 10° NNW 14:06:36 38° NW 14:06:36 38° NW
Cosmos 841 Rocket 3.6 14:08:32 63° E 14:08:32 63° E 14:13:26 10° NNE
Cosmos 2058 Rocket 3.8 14:08:54 45° WNW 14:08:54 45° WNW 14:13:03 10° N
Cosmos 2322 Rocket 3.7 14:08:34 10° NW 14:12:59 24° WSW 14:13:37 23° WSW
GP-B 4.3 14:09:48 10° NNE 14:13:05 32° ENE 14:13:05 32° ENE
Cosmos 1470 4.3 14:10:31 10° N 14:12:14 28° N 14:12:14 28° N
Cosmos 2142 Rocket 4.4 14:21:49 66° SSE 14:22:43 81° E 14:28:58 10° N
Cosmos 2180 Rocket 4.4 14:23:05 66° SSE 14:23:58 79° E 14:30:18 10° N
ARIANE 5 R/B 2.9 14:25:28 65° NW 14:25:28 65° NW 14:29:22 10° NNW
ALOS 2 2.9 14:27:02 66° N 14:27:02 66° N 14:30:50 10° NNW
Meteor 2-9 Rocket 4.0 14:21:09 10° N 14:26:35 87° W 14:26:50 82° SSW
Cosmos 372 Rocket 4.1 14:24:01 10° NNW 14:28:46 59° W 14:28:46 59° W
ISS -1.2 14:28:30 10° NW 14:29:40 19° NW 14:29:40 19° NW
Cosmos 2237 Rocket 3.1 14:26:31 10° NNW 14:31:55 42° ENE 14:33:25 35° E
CZ-2C R/B 3.4 14:31:45 37° E 14:32:31 39° ENE 14:37:21 10° N
NOSS 0 Rocket 3.9 14:28:28 10° NNW 14:34:40 76° ENE 14:35:40 62° SE
Cosmos 1975 4.1 14:31:52 10° NNW 14:34:08 35° NNW 14:34:08 35° NNW
Cosmos 1980 4.3 14:30:36 10° NNW 14:36:05 48° ENE 14:37:18 41° E
USA 234 3.1 14:29:54 10° NE 14:36:28 77° SE 14:37:55 57° SSW
Spot 4 4.1 14:37:12 59° WNW 14:37:12 59° WNW 14:41:33 10° NNW
RESURS DK-1 3.4 14:33:54 10° NNW 14:36:32 40° NW 14:36:32 40° NW
Meteor 2-4 Rocket 4.3 14:41:40 41° E 14:41:41 41° E 14:46:49 10° NNE
Cosmos 2227 Rocket 3.6 14:42:13 26° E 14:42:13 26° E 14:46:21 10° NE
COSMOS 2428 2.6 14:36:35 10° NNW 14:42:16 74° WSW 14:42:24 74° SW
Meteor 1-11 Rocket 3.5 14:37:29 10° N 14:43:10 85° E 14:43:28 80° SE
Meteor 1-10 Rocket 4.2 14:45:12 74° SSW 14:45:46 86° W 14:51:45 10° N
Cosmos 858 Rocket 4.5 14:41:01 10° NNW 14:46:12 72° ENE 14:46:15 72° ENE
BREEZE-M DEB (TANK) 4.3 14:27:16 10° SW 14:48:43 62° SSE 14:54:21 10° ENE
ARGOS Delta rocket 4.2 14:43:54 10° N 14:49:00 61° WNW 14:49:22 59° W
PSLV R/B 4.0 14:45:12 10° N 14:48:54 58° NNW 14:48:54 58° NNW
Cosmos 1937 Rocket 3.5 14:44:23 10° NNW 14:49:12 72° WNW 14:49:12 72° WNW
Cosmos 1766 Rocket 4.4 14:46:51 10° N 14:50:23 42° NE 14:50:23 42° NE
Cosmos 2263 Rocket 3.9 14:52:40 19° E 14:52:40 19° E 14:56:15 10° NE
Lacrosse 4 Rocket 3.0 14:55:01 26° ENE 14:55:01 26° ENE 14:57:04 10° NE
Meteor 2-20 Rocket 4.3 14:57:12 64° ESE 14:57:33 65° E 15:03:13 10° NNE
ACS3 Solar Sail 2.8 14:53:54 10° NNE 14:59:06 30° E 14:59:54 29° ESE
Meteor 1-27 Rocket 3.6 15:00:42 77° SSE 15:01:06 84° E 15:06:54 10° NNE
Meteor 2-20 4.3 15:06:13 66° SW 15:07:00 75° W 15:13:07 10° N
MetOp-A 4.0 15:10:01 66° WNW 15:10:01 66° WNW 15:14:20 10° NNW
CZ-2C R/B 3.2 15:04:31 10° N 15:10:19 81° WNW 15:10:55 71° SW
SeaSat 1 3.4 15:10:39 36° E 15:11:51 43° NE 15:16:29 10° NNW
Cosmos 2297 Rocket 2.1 15:14:44 68° WSW 15:15:16 74° WNW 15:20:57 10° NNE
Cosmos 2266 Rocket 4.4 15:22:27 10° NNW 15:28:07 44° W 15:28:39 43° WSW
Cosmos 1238 Rocket 3.8 15:29:51 45° NNW 15:29:51 45° NNW 15:33:06 10° N
Meteor 2-10 Rocket 3.7 15:25:27 10° N 15:31:01 73° ENE 15:31:44 64° SE
BREEZE-M R/B 4.0 15:27:29 10° WNW 15:33:22 72° SW 15:40:35 10° SE
Cosmos 1066 Rocket 3.9 15:39:40 79° SSW 15:40:01 88° W 15:45:32 10° N
Cosmos 1814 Rocket 3.8 15:40:06 86° SSW 15:40:12 89° W 15:45:28 10° NNE
Okean 3 Rocket 3.9 15:38:49 10° N 15:43:11 61° ENE 15:43:11 61° ENE
Cosmos 1758 4.4 15:40:49 10° N 15:43:27 36° NE 15:43:27 36° NE
Cosmos 1842 Rocket 3.8 15:48:32 62° NW 15:48:32 62° NW 15:52:27 10° N
BlueWalker 3 3.2 15:53:16 35° NNE 15:53:16 35° NNE 15:55:37 10° NE
Landsat 5 4.2 15:49:25 10° N 15:52:44 44° NW 15:52:44 44° NW
Cosmos 1655 Rocket 4.1 15:48:51 10° NNW 15:54:56 56° W 15:55:49 52° WSW
Meteor 1-18 Rocket 4.0 15:54:18 71° SSW 15:54:58 86° W 16:00:39 10° N
Sich 1 3.2 15:53:14 10° N 15:56:46 63° NNW 15:56:46 63° NNW
IDEFIX/ARIANE 42P 3.8 15:53:53 10° NE 15:58:27 30° E 15:59:40 27° ESE
Cosmos 1805 Rocket 3.9 15:56:03 10° N 16:00:18 55° E 16:00:22 55° E
Cosmos 1340 Rocket 3.7 15:56:42 10° N 16:00:11 41° ENE 16:00:11 41° ENE
SL-14 R/B 3.9 16:01:58 52° N 16:01:58 52° N 16:04:56 10° N
SL-16 R/B 2.6 15:58:22 10° NNW 16:04:01 62° ENE 16:06:33 33° SE
Cosmos 2219 3.9 16:03:34 38° SE 16:04:28 41° ESE 16:09:43 10° NE
ADEOS Rocket 4.4 16:04:27 10° NNE 16:11:30 39° E 16:15:15 23° SE
CZ-2C R/B 3.8 16:13:11 28° W 16:13:11 28° W 16:17:18 10° NW
Cosmos 2237 Rocket 3.2 16:10:51 10° NW 16:15:11 31° W 16:15:11 31° W
Spot 1 4.2 16:13:35 10° NNE 16:18:17 77° ESE 16:18:47 68° SSE
USA 234 4.2 16:13:06 10° NE 16:19:13 44° NNW 16:25:14 10° W
In-Cosmos 22 4.2 16:19:04 58° SW 16:19:59 69° WNW 16:25:38 10° N
Cosmos 1953 3.9 16:19:05 10° NNE 16:22:08 25° ENE 16:23:03 22° E
Cosmos 1408 Rocket 3.4 16:20:04 10° N 16:24:13 77° WNW 16:24:13 77° WNW
Cosmos 2227 Rocket 2.7 16:23:59 40° WSW 16:25:27 50° WNW 16:30:59 10° NNE
Iridium 4 Rocket 4.5 16:26:39 35° W 16:27:30 37° W 16:32:52 10° NNW
Cosmos 2084 3.8 16:24:57 10° NNW 16:29:02 58° NE 16:30:33 34° ESE
Lacrosse 4 Rocket 3.2 16:30:24 19° WNW 16:31:12 21° NW 16:34:18 10° N
ATLAS 2AS CENTAUR R/B 3.7 16:26:05 10° NNW 16:32:34 45° NE 16:39:01 10° ESE
Cosmos 2263 Rocket 2.3 16:34:19 48° WSW 16:35:43 64° WNW 16:41:17 10° NNE
ACS3 Solar Sail 2.3 16:35:56 10° N 16:41:34 45° WNW 16:43:23 35° WSW
NOSS 2-2 (C) 3.7 16:44:16 43° E 16:44:16 43° E 16:46:34 10° NE
S3M 3.9 16:41:29 41° S 16:43:50 86° E 16:50:01 10° N
Cosmos 1943 3.8 16:43:21 10° NNW 16:48:53 54° ENE 16:54:20 10° SE
SeaSat 1 3.6 16:50:14 26° W 16:50:14 26° W 16:53:32 10° NW
ADEOS II 4.4 16:50:04 10° NE 16:53:18 16° E 16:56:31 10° SE
Cosmos 2315 Rocket 4.0 16:50:40 35° S 16:53:34 81° E 16:59:56 10° N
MSX 3.8 16:51:50 10° NNE 16:57:38 85° WNW 16:59:56 39° SSW
Cosmos 1151 Rocket 4.0 16:58:38 31° W 16:58:55 32° WNW 17:02:48 10° N
Cosmos 1703 3.2 16:59:36 51° NW 16:59:36 51° NW 17:02:17 10° N
Cosmos 2297 Rocket 4.4 16:57:11 10° WNW 17:00:20 15° NW 17:03:30 10° N
Tiangong 0.1 17:04:13 17° ESE 17:04:13 17° ESE 17:05:06 10° ESE
Cosmos 1570 Rocket 4.0 17:01:32 44° SW 17:03:13 74° WNW 17:08:32 10° NNE
Resurs 1-4 Rocket 3.5 16:59:53 10° NE 17:04:32 31° E 17:08:22 14° SSE
Cosmos 1633 Rocket 3.3 17:02:23 10° N 17:06:42 66° E 17:08:47 29° SSE
Cosmos 1844 Rocket 3.3 17:04:15 27° SSE 17:06:55 48° ESE 17:12:15 10° NE
Cosmos 2082 3.7 17:05:46 39° SW 17:07:55 75° WNW 17:13:34 10° NNE
Cosmos 1125 Rocket 4.0 17:04:34 10° NW 17:09:29 40° WSW 17:10:15 37° SW
CENTAUR R/B 2.6 17:11:01 33° S 17:13:23 60° ESE 17:19:56 10° NE
Cosmos 1709 Rocket 4.0 17:08:22 10° NNW 17:14:28 64° W 17:17:39 30° SSW
NOSS 2-2 (D) 3.3 17:15:06 47° SE 17:15:26 49° SE 17:18:25 10° NE
CZ-4C R/B 4.2 17:09:15 10° NNW 17:15:38 41° NE 17:23:30 10° ESE
Cosmos 773 Rocket 4.1 17:18:43 36° SW 17:20:38 60° WNW 17:25:43 10° NNE
Meteor 1-21 4.3 17:17:54 26° S 17:21:12 74° E 17:26:48 10° NNE
Atlas Centaur 2 3.7 17:23:32 25° SSW 17:25:10 27° S 17:31:34 10° ESE
Geosat FO 4.5 17:25:01 10° NE 17:27:36 45° ESE 17:27:47 44° SE
Cosmos 2150 Rocket 4.0 17:24:12 10° NNW 17:29:40 81° WSW 17:35:04 10° SSE
BlueWalker 3 4.1 17:27:20 10° WNW 17:30:06 21° N 17:32:53 10° NE
CRYOSAT 2 4.4 17:32:30 29° SSW 17:34:54 62° W 17:39:45 10° NNW
Okean 2 3.4 17:33:47 28° S 17:35:38 69° E 17:39:27 10° NNE
FENGYUN 3A 4.0 17:32:37 10° N 17:37:51 51° WNW 17:40:36 26° SW
IDEFIX/ARIANE 42P 3.4 17:33:09 10° N 17:37:56 37° WNW 17:40:21 24° WSW
COSMOS 2441 4.3 17:33:38 10° N 17:38:25 74° WNW 17:40:59 27° SSW
Cosmos 1666 Rocket 3.9 17:34:40 10° NNW 17:38:54 45° W 17:40:32 31° SW
Cosmos 2208 Rocket 4.4 17:37:23 27° SW 17:39:58 50° WNW 17:45:06 10° NNE
BREEZE-M DEB (TANK) 4.4 17:40:26 10° NW 17:43:21 24° N 17:45:14 10° ENE
H-2A R/B 2.8 17:39:10 10° NNE 17:44:27 53° E 17:49:33 11° S
CZ-2D R/B 2.5 17:39:28 10° NNE 17:44:51 63° ESE 17:49:30 14° S
Cosmos 1844 3.7 17:41:18 24° SSW 17:44:52 87° ESE 17:50:41 10° NNE
SL-16 R/B 3.5 17:43:29 10° NW 17:47:35 21° W 17:48:21 20° WSW
Cosmos 2219 4.3 17:45:26 19° WSW 17:48:40 33° NW 17:53:43 10° N
NPP 4.4 17:47:05 10° N 17:52:03 38° WNW 17:55:04 21° WSW
USA 281 3.2 17:46:07 10° SSE 17:52:42 86° WSW 17:59:18 10° NNW
Cosmos 2344 4.3 17:47:13 12° S 17:54:31 45° ESE 18:01:16 10° NE
IRIDIUM 104 4.5 17:50:25 10° N 17:55:39 76° E 18:00:52 10° S
NOAA 11 4.5 17:51:20 10° N 17:56:38 54° WNW 18:00:16 20° SW
Cosmos 1953 3.5 17:54:09 10° NW 17:56:55 21° W 17:57:15 20° W
ADEOS Rocket 3.9 17:49:44 10° N 17:57:01 48° WNW 18:02:10 18° SW
DMSP B5D2-2 4.0 17:52:19 11° S 17:57:18 65° WSW 18:02:31 10° NNW
Cosmos 2154 Rocket 4.1 17:51:23 10° N 17:57:40 80° E 18:03:51 10° S
NOSS 3-2 (A) 3.9 17:54:49 15° S 17:58:34 43° ESE 18:03:53 10° NE
Envisat 3.0 17:54:43 10° N 17:59:47 73° WNW 18:03:34 18° SSW
Cosmos 2074 Rocket 4.0 17:53:58 10° N 18:00:18 87° W 18:06:32 10° S
Cosmos 1515 Rocket 3.6 17:57:45 21° SSW 18:00:37 67° W 18:05:03 10° N
IRIDIUM 114 4.3 17:59:33 10° N 18:04:49 90° W 18:10:02 10° S
Cosmos 2184 Rocket 3.9 18:00:11 10° N 18:06:21 81° W 18:12:31 10° S
EXPRESS MD2 4.1 18:04:28 10° NW 18:06:37 32° NNE 18:09:25 10° E
ARGOS 4.4 18:02:08 10° NNE 18:07:07 38° E 18:12:04 10° SSE
Cosmos 1400 Rocket 3.8 18:06:10 10° N 18:09:49 44° ENE 18:13:27 10° SSE
IRIDIUM 103 4.3 18:08:44 10° N 18:13:58 75° W 18:19:09 10° S
ALOS 2.3 18:13:59 10° N 18:18:29 63° WNW 18:22:23 13° SSW
NOSS 2-2 (E) 3.4 18:18:31 18° WSW 18:20:44 44° NW 18:23:40 10° NNE
Cosmos 2263 Rocket 4.3 18:18:11 10° WNW 18:20:46 13° NW 18:23:21 10° NNW
Cosmos 1867 3.7 18:16:59 10° NW 18:22:14 50° WSW 18:27:28 10° SSE
ATLAS 2AS CENTAUR R/B 2.9 18:17:05 10° NW 18:23:28 45° WSW 18:29:52 10° S
H-2A R/B 2.4 18:26:43 10° S 18:30:06 43° W 18:33:34 10° NNW
Cosmos 1610 Rocket 4.5 18:25:16 10° N 18:31:29 83° W 18:37:44 10° S
Cosmos 1943 4.3 18:28:08 10° NW 18:32:28 23° WSW 18:36:47 10° SSW
ADEOS II 2.1 18:28:07 10° N 18:33:19 68° WNW 18:38:29 10° SSW
Cosmos 2285 Rocket 4.5 18:28:35 10° NW 18:34:23 40° W 18:40:11 10° SSW
Cosmos 1733 Rocket 4.2 18:30:15 10° N 18:34:26 45° ENE 18:38:34 10° SSE
Okean 3 3.8 18:33:46 12° SSW 18:37:19 42° WNW 18:41:08 10° N
METEOR-M 4.1 18:32:55 10° NNE 18:38:17 82° WNW 18:43:36 10° SSW
Tiangong -0.8 18:36:23 13° WSW 18:38:27 22° SSW 18:40:59 10° SSE
Cosmos 1538 Rocket 4.0 18:38:00 10° SSW 18:43:08 74° WNW 18:48:18 10° NNE
Resurs 1-4 Rocket 2.9 18:39:31 10° N 18:44:19 37° WNW 18:49:06 10° SW
BREEZE-M DEB (TANK) 3.2 18:42:06 10° WNW 18:46:41 37° N 18:49:05 10° ENE
Cosmos 1833 Rocket 3.6 18:44:21 10° NNW 18:49:54 55° ENE 18:55:25 10° SE
Cosmos 1844 Rocket 3.9 18:46:11 10° WSW 18:50:59 29° NW 18:55:48 10° N
Cosmos 1933 Rocket 4.4 18:49:13 10° NNW 18:53:02 31° W 18:56:48 10° SSW
Cosmos 923 Rocket 4.5 18:51:07 10° S 18:56:21 65° ESE 19:01:36 10° NNE
CZ-2C R/B 3.6 18:52:09 10° NNE 18:56:27 40° E 19:00:42 10° SSE
Nadezhda 1 Rocket 4.3 18:52:50 10° SSW 18:58:41 48° WNW 19:04:33 10° N
SL-16 R/B 2.6 18:52:32 10° SSE 18:58:48 88° WSW 19:05:05 10° NNW
Cosmos 1603 4.4 18:54:04 10° NW 18:59:07 33° WSW 19:04:08 10° SSW
CZ-4C R/B 3.1 18:57:12 10° NW 19:04:21 62° WSW 19:13:03 10° SSE
